1512813600.28,9683,4.94,71864.8,-9.43,-11.11,-11.07,0,*6D
1512813601.52,9684,4.94,71862.5,-9.43,-11.07,-10.97,0,*65
1512813602.79,9685,4.94,71866.3,-9.43,-11.07,-11.07,0,*6C
1512813604.03,9686,4.94,71866.8,-9.43,-11.11,-11.07,0,*68
1512813605.27,9687,4.94,71866.0,-9.43,-11.11,-11.07,0,*69
1512813606.53,9688,4.94,71866.3,-9.41,-11.11,-11.07,0,*64
1512813607.77,9689,4.94,71864.5,-9.43,-11.11,-11.07,0,*67
1512813608.99,9690,4.94,71862.5,-9.43,-10.97,-10.97,0,*68
1512813610.26,9691,4.94,71860.3,-9.43,-11.07,-11.07,0,*69
1512813611.49,9692,4.94,71866.3,-9.43,-11.19,-11.07,0,*65
1512813612.73,9693,4.94,71864.8,-9.43,-11.11,-11.07,0,*6C
1512813613.97,9694,4.94,71866.3,-9.43,-11.11,-11.07,0,*6B
1512813615.21,9695,4.94,71864.3,-9.43,-11.11,-11.07,0,*6A
1512813616.42,9696,4.94,71866.3,-9.43,-11.23,-11.19,0,*67
1512813617.66,9697,4.94,71864.0,-9.43,-11.29,-11.23,0,*65
1512813618.87,9698,4.94,71864.3,-9.43,-11.23,-11.11,0,*61
1512813620.08,9699,4.94,71860.8,-9.43,-11.11,-11.11,0,*61
1512813621.29,9700,4.94,71866.3,-9.43,-11.19,-11.11,0,*68
1512813622.52,9701,4.94,71862.8,-9.45,-11.15,-11.15,0,*67
1512813623.76,9702,4.94,71864.8,-9.45,-10.97,-10.89,0,*6B
1512813624.99,9703,4.94,71864.3,-9.49,-11.11,-11.01,0,*68
1512813626.22,9704,4.94,71864.8,-9.45,-11.11,-11.01,0,*63
1512813627.45,9705,4.94,71860.0,-9.45,-11.15,-11.23,0,*66
1512813628.69,9706,4.94,71864.0,-9.45,-11.15,-11.23,0,*65
1512813629.97,9707,4.94,71866.0,-9.45,-11.33,-11.33,0,*61
1512813631.2,9708,4.94,71864.8,-9.45,-11.23,-11.15,0,*6B
1512813632.44,9709,4.94,71866.8,-9.45,-11.11,-10.97,0,*60
1512813633.69,9710,4.94,71864.3,-9.45,-10.97,-10.97,0,*67
1512813634.92,9711,4.94,71866.5,-9.45,-10.97,-10.85,0,*65
1512813636.17,9712,4.94,71866.8,-9.45,-10.97,-10.97,0,*65
1512813637.41,9713,4.94,71866.3,-9.45,-11.01,-11.01,0,*64
1512813638.64,9714,4.94,71864.3,-9.45,-11.11,-11.15,0,*67
1512813639.87,9715,4.94,71864.0,-9.45,-11.11,-11.11,0,*62
1512813641.11,9716,4.94,71866.8,-9.45,-11.15,-11.15,0,*61
1512813642.34,9717,4.94,71864.5,-9.45,-11.11,-11.15,0,*64
1512813643.57,9718,4.94,71864.0,-9.45,-11.11,-11.15,0,*6B
1512813644.81,9719,4.94,71864.0,-9.45,-11.23,-11.15,0,*6B
1512813646.04,9720,4.94,71866.3,-9.45,-11.15,-11.15,0,*64
1512813647.28,9721,4.94,71866.8,-9.45,-11.15,-11.11,0,*61
1512813648.51,9722,4.94,71866.3,-9.45,-11.11,-11.11,0,*66
1512813649.74,9723,4.94,71866.8,-9.45,-11.11,-11.11,0,*67
1512813650.96,9724,4.94,71866.5,-9.49,-11.15,-11.11,0,*68
1512813652.2,9725,4.94,71864.5,-9.45,-11.15,-11.11,0,*65
1512813653.43,9726,4.94,71864.8,-9.45,-11.15,-11.11,0,*66
1512813654.67,9727,4.94,71866.8,-9.45,-11.23,-11.15,0,*66
1512813655.89,9728,4.94,71864.0,-9.49,-11.01,-11.01,0,*60
1512813657.13,9729,4.94,71866.5,-9.45,-11.01,-11.01,0,*6D
1512813658.37,9730,4.94,71862.8,-9.45,-11.11,-11.11,0,*65
1512813659.6,9731,4.94,71864.0,-9.45,-11.15,-11.15,0,*64
1512813660.83,9732,4.94,71866.5,-9.45,-11.15,-11.01,0,*62
1512813662.07,9733,4.94,71866.5,-9.45,-10.89,-10.89,0,*66
1512813663.31,9734,4.94,71864.5,-9.45,-11.11,-10.97,0,*6E
1512813664.54,9735,4.94,71864.3,-9.49,-10.97,-10.97,0,*6C
1512813665.78,9736,4.94,71866.0,-9.45,-10.97,-10.89,0,*6C
1512813667.0,9737,4.94,71866.3,-9.49,-10.89,-10.89,0,*6E
1512813668.25,9738,4.94,71864.8,-9.45,-10.97,-10.97,0,*6D
1512813669.49,9739,4.94,71864.5,-9.45,-10.97,-10.89,0,*63
1512813670.72,9740,4.94,71866.3,-9.49,-10.97,-10.97,0,*6E
1512813671.96,9741,4.94,71868.0,-9.45,-10.97,-10.89,0,*6C
1512813673.19,9742,4.94,71864.5,-9.45,-11.11,-11.01,0,*61
1512813674.41,9743,4.94,71866.5,-9.43,-10.97,-10.93,0,*63
1512813675.68,9744,4.94,71864.8,-9.41,-11.07,-10.97,0,*6A
1512813676.93,9745,4.94,71864.8,-9.43,-11.07,-10.97,0,*69
1512813678.17,9746,4.94,71864.8,-9.45,-11.01,-10.97,0,*6A
1512813679.41,9747,4.94,71866.0,-9.45,-11.01,-10.89,0,*64
1512813680.65,9748,4.94,71864.8,-9.45,-10.97,-10.97,0,*6A
1512813681.89,9749,4.94,71864.3,-9.45,-10.97,-10.89,0,*64
1512813683.14,9750,4.94,71864.5,-9.45,-11.01,-10.97,0,*6D
1512813684.37,9751,4.94,71866.8,-9.45,-11.11,-11.01,0,*63
1512813685.61,9752,4.94,71866.0,-9.45,-11.01,-11.01,0,*61
1512813686.85,9753,4.94,71866.5,-9.45,-11.01,-11.01,0,*60
1512813688.08,9754,4.94,71864.8,-9.49,-11.11,-10.97,0,*64
1512813689.29,9755,4.94,71866.5,-9.43,-10.93,-10.93,0,*60
1512813690.53,9756,5.0,71868.8,-9.45,-10.97,-10.89,0,*6A
1512813691.78,9757,4.94,71870.0,-9.45,-11.01,-10.97,0,*6A
1512813693.02,9758,4.94,71864.8,-9.45,-10.97,-10.97,0,*6B
1512813694.26,9759,4.94,71864.3,-9.45,-10.89,-10.89,0,*6A
1512813695.5,9760,4.94,71864.8,-9.45,-11.01,-10.97,0,*6E
1512813696.74,9761,4.94,71864.0,-9.45,-11.11,-10.97,0,*6E
1512813697.97,9762,4.94,71866.8,-9.45,-11.11,-11.11,0,*62
1512813699.19,9763,4.94,71870.0,-9.49,-11.11,-11.11,0,*6F
1512813700.41,9764,4.94,71866.8,-9.49,-11.11,-11.11,0,*68
1512813701.65,9765,4.94,71868.5,-9.45,-11.01,-11.01,0,*65
1512813702.89,9766,4.94,71864.8,-9.45,-10.97,-10.85,0,*65
1512813704.13,9767,4.94,71868.5,-9.45,-11.01,-10.89,0,*66
1512813705.37,9768,4.94,71870.3,-9.45,-10.97,-11.01,0,*66
1512813706.6,9769,4.94,71866.8,-9.45,-11.15,-11.15,0,*69
1512813707.86,9770,4.94,71864.8,-9.45,-11.23,-11.29,0,*6B
1512813709.1,9771,4.94,71864.3,-9.45,-11.23,-11.23,0,*60
1512813710.33,9772,4.94,71870.0,-9.45,-11.15,-11.23,0,*66
1512813711.57,9773,4.94,71866.0,-9.45,-11.15,-11.15,0,*62
1512813712.79,9774,4.94,71864.8,-9.49,-11.01,-11.01,0,*69
1512813714.03,9775,4.94,71866.8,-9.45,-10.97,-10.89,0,*6B
1512813715.27,9776,4.94,71870.5,-9.49,-10.97,-10.97,0,*6B
1512813716.5,9777,4.94,71868.0,-9.45,-10.89,-10.97,0,*69
1512813717.73,9778,4.94,71866.5,-9.49,-11.01,-11.01,0,*65
1512813719.01,9779,4.94,71870.5,-9.49,-11.33,-11.29,0,*6F
1512813720.29,9780,4.94,71868.8,-9.45,-11.29,-11.33,0,*65
1512813721.58,9781,4.94,71868.5,-9.45,-11.29,-11.29,0,*6F
1512813722.87,9782,4.94,71868.3,-9.45,-11.29,-11.29,0,*6C
1512813724.09,9783,4.94,71864.3,-9.49,-11.15,-11.15,0,*61
1512813725.32,9784,4.94,71866.3,-9.49,-11.01,-11.11,0,*67
1512813726.54,9785,4.94,71868.5,-9.49,-11.11,-11.11,0,*67
1512813727.77,9786,4.94,71868.0,-9.45,-11.23,-11.23,0,*68
1512813729.0,9787,4.94,71866.8,-9.49,-11.23,-11.15,0,*60
1512813730.22,9788,4.94,71870.5,-9.49,-11.23,-11.15,0,*6F
1512813731.44,9789,4.94,71868.8,-9.49,-11.15,-11.11,0,*6F
1512813732.66,9790,4.94,71868.8,-9.49,-10.89,-10.97,0,*6C
1512813733.88,9791,4.94,71870.0,-9.49,-10.89,-10.89,0,*62
1512813735.13,9792,4.94,71870.3,-9.45,-11.01,-10.97,0,*63
1512813736.36,9793,4.94,71872.0,-9.45,-11.11,-11.11,0,*6C
1512813737.58,9794,4.94,71868.3,-9.49,-11.11,-11.11,0,*67
1512813738.81,9795,4.94,71868.0,-9.49,-11.01,-11.01,0,*66
1512813740.03,9796,4.94,71868.0,-9.49,-11.11,-11.11,0,*65
1512813741.28,9797,4.94,71870.8,-9.49,-11.45,-11.33,0,*65
1512813742.55,9798,4.94,71870.3,-9.49,-11.33,-11.29,0,*60
1512813743.83,9799,4.94,71868.5,-9.49,-11.29,-11.29,0,*6A
1512813745.08,9800,4.94,71868.5,-9.49,-11.33,-11.23,0,*64
1512813746.33,9801,4.94,71870.0,-9.49,-11.29,-11.23,0,*6E
1512813747.56,9802,4.94,71870.8,-9.45,-11.15,-11.15,0,*6B
1512813748.78,9803,4.94,71868.8,-9.49,-11.15,-11.15,0,*66
1512813750.0,9804,4.94,71870.3,-9.49,-11.15,-11.15,0,*61
1512813751.22,9805,4.94,71872.0,-9.49,-11.15,-11.23,0,*65
1512813752.5,9806,4.94,71868.0,-9.49,-11.29,-11.29,0,*63
1512813753.72,9807,4.94,71868.5,-9.49,-11.15,-11.15,0,*62
1512813754.94,9808,4.94,71872.3,-9.49,-11.15,-11.15,0,*6D
1512813756.16,9809,4.94,71870.0,-9.49,-11.23,-11.15,0,*69
1512813757.39,9810,4.94,71874.3,-9.49,-11.23,-11.15,0,*61
1512813758.61,9811,4.94,71868.3,-9.49,-11.15,-11.23,0,*60
1512813759.8,9812,4.94,71874.3,-9.51,-11.19,-11.19,0,*6F
1512813761.02,9813,4.94,71872.5,-9.51,-11.29,-11.19,0,*6D
1512813762.21,9814,4.94,71874.3,-9.51,-11.19,-11.19,0,*69
1512813763.46,9815,4.94,71870.3,-9.53,-11.19,-11.29,0,*69
1512813764.71,9816,4.94,71872.0,-9.51,-11.33,-11.29,0,*60
1512813765.95,9817,4.94,71868.5,-9.51,-11.37,-11.37,0,*6A
1512813767.16,9818,4.94,71870.0,-9.51,-11.19,-11.29,0,*66
1512813768.35,9819,4.94,71872.3,-9.51,-11.19,-11.19,0,*64
1512813769.6,9820,4.94,71874.3,-9.51,-11.29,-11.29,0,*6E
1512813770.84,9821,4.94,71872.0,-9.51,-11.33,-11.33,0,*6F
1512813772.09,9822,4.94,71870.3,-9.51,-11.29,-11.29,0,*6C
1512813773.34,9823,4.94,71870.5,-9.51,-11.29,-11.29,0,*6D
1512813774.62,9824,4.94,71874.0,-9.53,-11.37,-11.37,0,*68
1512813775.86,9825,4.94,71872.3,-9.51,-11.33,-11.33,0,*6B
1512813777.08,9826,4.94,71874.8,-9.51,-11.45,-11.33,0,*69
1512813778.33,9827,4.94,71868.8,-9.53,-11.29,-11.19,0,*68
1512813779.61,9828,4.94,71870.3,-9.53,-11.33,-11.29,0,*6F
1512813780.88,9829,4.94,71874.5,-9.53,-11.37,-11.37,0,*65
1512813782.13,9830,4.94,71872.5,-9.53,-11.51,-11.45,0,*68
1512813783.38,9831,4.94,71874.5,-9.53,-11.51,-11.45,0,*69
1512813784.61,9832,4.94,71872.0,-9.51,-11.37,-11.33,0,*69
1512813785.86,9833,4.94,71868.8,-9.53,-11.51,-11.45,0,*6B
1512813787.11,9834,4.94,71872.3,-9.53,-12.03,-11.85,0,*64
1512813788.39,9835,4.94,71872.0,-9.53,-11.97,-11.89,0,*67
1512813789.64,9836,4.94,71874.0,-9.53,-12.03,-11.85,0,*66
1512813790.88,9837,4.94,71870.5,-9.51,-11.97,-11.77,0,*66
1512813792.12,9838,4.94,71872.0,-9.51,-11.89,-11.85,0,*6B
1512813793.37,9839,4.94,71870.0,-9.53,-12.03,-11.97,0,*6A
1512813794.64,9840,4.94,71872.0,-9.53,-11.97,-11.85,0,*69
1512813795.87,9841,4.94,71872.5,-9.55,-12.03,-11.89,0,*6C
1512813797.12,9842,4.94,71872.0,-9.53,-12.03,-11.85,0,*65
1512813798.37,9843,4.94,71874.0,-9.55,-12.07,-11.89,0,*6A
1512813799.62,9844,4.94,71874.0,-9.53,-12.03,-11.85,0,*63
1512813800.84,9845,4.94,71874.0,-9.55,-12.03,-11.89,0,*68
1512813802.09,9846,4.94,71872.0,-9.55,-12.07,-11.93,0,*64
1512813803.32,9847,4.94,71868.8,-9.55,-12.07,-12.03,0,*6F
1512813804.57,9848,4.94,71872.3,-9.55,-12.07,-11.89,0,*61
1512813805.85,9849,4.94,71870.8,-9.57,-12.07,-11.93,0,*69
1512813807.12,9850,4.94,71874.5,-9.53,-11.97,-11.77,0,*65
1512813808.35,9851,4.94,71874.8,-9.55,-12.03,-11.89,0,*6D
1512813809.59,9852,4.94,71874.8,-9.57,-12.03,-11.81,0,*64
1512813810.83,9853,4.94,71870.8,-9.57,-12.03,-11.81,0,*65
1512813812.08,9854,4.94,71872.0,-9.55,-12.07,-11.93,0,*67
1512813813.33,9855,4.94,71872.0,-9.57,-12.15,-12.03,0,*6D
1512813814.58,9856,4.94,71870.8,-9.57,-12.15,-12.03,0,*6E
1512813815.83,9857,4.94,71872.5,-9.57,-12.15,-12.03,0,*6F
1512813817.06,9858,4.94,71872.3,-9.55,-12.07,-12.03,0,*61
1512813818.31,9859,4.94,71874.8,-9.57,-12.03,-11.93,0,*6C
1512813819.59,9860,4.94,71872.8,-9.57,-12.07,-11.93,0,*62
1512813820.83,9861,4.94,71872.8,-9.57,-12.03,-11.81,0,*64
1512813822.1,9862,4.94,71870.8,-9.57,-12.07,-11.81,0,*63
1512813823.33,9863,4.94,71874.3,-9.59,-12.21,-12.11,0,*62
1512813824.58,9864,4.94,71874.8,-9.57,-12.15,-12.03,0,*6F
1512813825.83,9865,4.94,71872.0,-9.57,-12.07,-12.03,0,*6D
1512813827.11,9866,4.94,71872.5,-9.57,-12.07,-11.89,0,*6F
1512813828.36,9867,4.94,71872.0,-9.59,-12.11,-11.93,0,*6C
1512813829.61,9868,4.94,71872.3,-9.59,-12.07,-11.93,0,*64
1512813830.86,9869,4.94,71878.3,-9.59,-12.11,-11.85,0,*65
1512813832.11,9870,4.94,71872.0,-9.59,-11.97,-11.85,0,*60
1512813833.39,9871,4.94,71870.0,-9.61,-12.07,-11.85,0,*60
1512813834.63,9872,4.94,71872.3,-9.59,-11.97,-11.73,0,*6B
1512813835.91,9873,4.94,71874.8,-9.61,-11.85,-11.81,0,*6F
1512813837.16,9874,4.94,71872.0,-9.59,-11.93,-11.73,0,*69
1512813838.4,9875,4.94,71872.8,-9.59,-11.85,-11.73,0,*6F
1512813839.66,9876,4.94,71872.3,-9.59,-11.93,-11.73,0,*6B
1512813840.91,9877,4.94,71870.8,-9.59,-11.93,-11.81,0,*67
1512813842.16,9878,4.94,71874.8,-9.59,-11.93,-11.73,0,*65
1512813843.44,9879,4.94,71872.0,-9.61,-11.97,-11.85,0,*62
1512813844.69,9880,4.94,71874.8,-9.59,-11.93,-11.73,0,*62
1512813845.97,9881,4.94,71872.0,-9.61,-11.93,-11.73,0,*68
1512813847.25,9882,4.94,71874.3,-9.61,-11.97,-11.73,0,*6F
1512813848.53,9883,4.94,71874.8,-9.61,-11.93,-11.73,0,*6A
1512813849.81,9884,4.94,71874.5,-9.61,-11.85,-11.55,0,*6E
1512813851.08,9885,4.94,71874.3,-9.61,-11.85,-11.59,0,*63
1512813852.35,9886,4.94,71874.3,-9.61,-11.81,-11.55,0,*68
1512813853.6,9887,4.94,71872.8,-9.59,-11.81,-11.55,0,*62
1512813854.88,9888,4.94,71874.5,-9.61,-11.93,-11.73,0,*61
1512813856.13,9889,4.94,71874.3,-9.59,-12.11,-11.85,0,*6B
1512813857.41,9890,4.94,71872.5,-9.61,-11.93,-11.67,0,*6D
1512813858.69,9891,4.94,71872.5,-9.61,-11.93,-11.73,0,*69
1512813859.94,9892,4.94,71872.3,-9.59,-12.07,-11.85,0,*66
1512813861.22,9893,4.94,71874.8,-9.61,-11.97,-11.85,0,*66
1512813862.49,9894,4.94,71872.0,-9.61,-11.93,-11.81,0,*61
1512813863.74,9895,4.94,71874.3,-9.59,-11.97,-11.85,0,*6B
1512813865.02,9896,4.94,71874.3,-9.61,-12.07,-11.93,0,*6E
1512813866.27,9897,4.94,71874.3,-9.59,-12.07,-11.85,0,*63
1512813867.56,9898,4.94,71874.5,-9.61,-11.93,-11.67,0,*65
1512813868.83,9899,4.94,71872.3,-9.61,-11.97,-11.81,0,*68
1512813870.08,9900,4.94,71874.5,-9.59,-11.93,-11.81,0,*66
1512813871.35,9901,4.94,71872.5,-9.61,-11.93,-11.81,0,*6C
1512813872.63,9902,4.94,71874.8,-9.61,-11.97,-11.81,0,*6B
1512813873.91,9903,4.94,71872.5,-9.61,-11.97,-11.93,0,*69
1512813875.19,9904,4.94,71874.3,-9.61,-12.07,-11.93,0,*64
1512813876.4,9905,4.94,71874.3,-9.63,-12.03,-11.85,0,*64
1512813877.65,9906,4.94,71874.5,-9.63,-11.97,-11.77,0,*64
1512813878.89,9907,4.94,71876.0,-9.63,-11.89,-11.77,0,*6A
1512813880.11,9908,4.94,71876.3,-9.63,-12.03,-11.85,0,*69
1512813881.35,9909,4.94,71878.8,-9.63,-11.97,-11.77,0,*6B
1512813882.6,9910,4.94,71872.0,-9.63,-11.97,-11.85,0,*6E
1512813883.84,9911,4.94,71872.5,-9.63,-12.11,-11.97,0,*61
1512813885.09,9912,4.94,71874.3,-9.63,-11.97,-11.77,0,*61
1512813886.36,9913,4.94,71874.3,-9.61,-11.97,-11.85,0,*6F
1512813887.61,9914,4.94,71872.5,-9.63,-12.15,-11.97,0,*60
1512813888.85,9915,4.94,71872.3,-9.63,-12.15,-12.11,0,*6C
1512813890.08,9916,4.94,71874.3,-9.63,-12.15,-12.03,0,*6C
1512813891.33,9917,4.94,71874.3,-9.65,-12.15,-12.03,0,*6B
1512813892.57,9918,4.94,71874.5,-9.63,-12.11,-11.97,0,*68
1512813893.85,9919,4.94,71872.3,-9.65,-12.11,-11.97,0,*6F
1512813895.09,9920,4.94,71874.0,-9.63,-12.15,-11.97,0,*67
1512813896.34,9921,4.94,71874.3,-9.63,-12.15,-11.97,0,*66
1512813897.59,9922,4.94,71872.3,-9.65,-12.03,-11.89,0,*6B
1512813898.86,9923,4.94,71874.0,-9.65,-12.15,-12.11,0,*6F
1512813900.11,9924,4.94,71870.0,-9.63,-12.15,-11.97,0,*63
1512813901.38,9925,4.94,71872.0,-9.65,-12.15,-11.97,0,*64
1512813902.65,9926,4.94,71872.3,-9.65,-12.15,-11.97,0,*67
1512813903.93,9927,4.94,71872.8,-9.65,-12.15,-12.11,0,*6B
1512813905.2,9928,4.94,71872.8,-9.65,-12.15,-11.97,0,*69
1512813906.42,9929,4.94,71874.0,-9.67,-12.15,-12.03,0,*64
1512813907.65,9930,4.94,71872.0,-9.67,-12.03,-11.93,0,*61
1512813908.89,9931,4.94,71874.0,-9.67,-11.93,-11.81,0,*69
1512813910.14,9932,4.94,71876.0,-9.67,-11.93,-11.81,0,*6A
1512813911.39,9933,4.94,71872.0,-9.67,-12.15,-11.93,0,*65
1512813912.61,9934,4.94,71870.8,-9.71,-12.03,-11.89,0,*69
1512813913.84,9935,4.94,71872.0,-9.67,-12.03,-11.89,0,*6F
1512813915.06,9936,4.94,71874.0,-9.71,-12.15,-12.03,0,*6D
1512813916.29,9937,4.94,71876.0,-9.67,-12.21,-12.07,0,*68
1512813917.51,9938,4.94,71878.0,-9.67,-12.03,-11.89,0,*62
1512813918.73,9939,4.94,71874.8,-9.71,-12.03,-11.93,0,*6F
1512813919.98,9940,4.94,71876.0,-9.71,-12.07,-11.89,0,*6E
1512813921.23,9941,4.94,71874.5,-9.71,-12.07,-11.93,0,*64
1512813922.48,9942,4.94,71876.8,-9.71,-12.07,-11.89,0,*6C
1512813923.74,9943,4.94,71876.5,-9.67,-11.93,-11.67,0,*64
1512813924.98,9944,4.94,71874.8,-9.67,-11.77,-11.67,0,*69
1512813926.23,9945,4.94,71874.3,-9.67,-11.77,-11.67,0,*68
1512813927.48,9946,4.94,71874.5,-9.71,-11.77,-11.55,0,*6D
1512813928.72,9947,4.94,71872.5,-9.71,-11.67,-11.51,0,*69
1512813929.97,9948,4.94,71874.5,-9.67,-11.89,-11.67,0,*64
1512813931.19,9949,4.94,71878.0,-9.71,-12.03,-11.93,0,*68
1512813932.44,9950,4.94,71872.3,-9.67,-12.07,-11.93,0,*63
1512813933.69,9951,4.94,71874.0,-9.67,-11.93,-11.81,0,*6F
1512813934.93,9952,4.94,71874.3,-9.71,-11.89,-11.77,0,*69
1512813936.18,9953,4.94,71874.0,-9.67,-11.89,-11.77,0,*6F
1512813937.43,9954,4.94,71874.3,-9.71,-11.93,-11.77,0,*64
1512813938.67,9955,4.94,71874.8,-9.71,-11.77,-11.67,0,*6E
1512813939.92,9956,4.94,71878.5,-9.67,-11.81,-11.63,0,*67
1512813941.17,9957,4.94,71872.5,-9.67,-11.67,-11.51,0,*6F
1512813942.41,9958,4.94,71874.3,-9.71,-11.81,-11.67,0,*6A
1512813943.66,9959,4.94,71876.3,-9.71,-11.89,-11.63,0,*67
1512813944.91,9960,4.94,71876.3,-9.67,-11.77,-11.55,0,*6E
1512813946.16,9961,4.94,71874.3,-9.71,-11.67,-11.55,0,*69
1512813947.4,9962,4.94,71876.3,-9.67,-11.77,-11.55,0,*6C
1512813948.65,9963,4.94,71872.5,-9.67,-11.77,-11.51,0,*69
1512813949.89,9964,4.94,71874.8,-9.71,-11.63,-11.51,0,*6C
1512813951.14,9965,4.94,71874.0,-9.67,-11.63,-11.51,0,*6A
1512813952.39,9966,4.94,71874.0,-9.67,-11.63,-11.55,0,*6D
1512813953.64,9967,4.94,71874.0,-9.71,-11.67,-11.55,0,*6F
1512813954.89,9968,4.94,71872.3,-9.67,-11.81,-11.63,0,*6A
1512813956.13,9969,4.94,71872.5,-9.67,-11.81,-11.63,0,*6B
1512813957.4,9970,4.94,71874.0,-9.65,-11.73,-11.59,0,*65
1512813958.67,9971,4.94,71876.8,-9.65,-11.77,-11.51,0,*68
1512813959.95,9972,4.94,71872.8,-9.65,-11.85,-11.63,0,*67
1512813961.23,9973,4.94,71874.0,-9.65,-11.77,-11.63,0,*6B
1512813962.5,9974,4.94,71874.5,-9.65,-11.85,-11.73,0,*60
1512813963.74,9975,4.94,71876.0,-9.67,-11.89,-11.67,0,*6A
1512813964.99,9976,4.94,71872.0,-9.67,-11.81,-11.67,0,*61
1512813966.23,9977,4.94,71876.3,-9.67,-11.77,-11.55,0,*68
1512813967.48,9978,4.94,71874.3,-9.67,-11.81,-11.67,0,*6F
1512813968.73,9979,4.94,71874.3,-9.67,-12.07,-11.89,0,*63
1512813969.98,9980,4.94,71874.8,-9.67,-12.07,-11.89,0,*65
1512813971.2,9981,4.94,71874.8,-9.71,-12.03,-11.89,0,*67
1512813972.42,9982,4.94,71874.5,-9.67,-12.03,-11.89,0,*63
1512813973.64,9983,4.94,71878.8,-9.71,-12.03,-11.89,0,*65
1512813974.89,9984,4.94,71878.5,-9.71,-11.89,-11.77,0,*62
1512813976.13,9985,4.94,71872.0,-9.67,-11.89,-11.67,0,*65
1512813977.38,9986,4.94,71872.3,-9.67,-11.89,-11.67,0,*66
1512813978.62,9987,4.94,71872.3,-9.71,-11.81,-11.67,0,*68
1512813979.88,9988,4.94,71874.8,-9.71,-11.93,-11.67,0,*64
1512813981.09,9989,4.94,71874.3,-9.71,-12.03,-11.77,0,*6E
1512813982.31,9990,4.94,71872.3,-9.71,-12.03,-11.77,0,*66
1512813983.56,9991,4.94,71876.0,-9.71,-11.93,-11.81,0,*64
1512813984.81,9992,4.94,71876.3,-9.67,-11.93,-11.77,0,*69
1512813986.06,9993,4.94,71876.3,-9.71,-11.93,-11.81,0,*66
1512813987.3,9994,4.94,71874.5,-9.67,-11.93,-11.81,0,*66
1512813988.55,9995,4.94,71872.0,-9.71,-11.93,-11.81,0,*60
1512813989.77,9996,4.94,71874.0,-9.71,-12.03,-11.81,0,*69
1512813991.01,9997,4.94,71878.3,-9.67,-11.93,-11.77,0,*6C
1512813992.26,9998,4.94,71874.8,-9.67,-11.93,-11.81,0,*6A
1512813993.51,9999,4.94,71872.8,-9.67,-11.93,-11.81,0,*6B
1512813994.76,10000,4.94,71872.8,-9.67,-11.89,-11.89,0,*59
1512813996.02,10001,4.94,71872.3,-9.71,-12.07,-11.93,0,*51
1512813997.28,10002,4.94,71876.0,-9.71,-12.07,-11.89,0,*59
1512813998.5,10003,4.94,71874.3,-9.67,-12.03,-11.81,0,*53
1512813999.73,10004,4.94,71876.3,-9.71,-12.03,-11.93,0,*50
1512814000.96,10005,4.94,71878.5,-9.71,-12.21,-12.07,0,*5F
1512814002.19,10006,4.94,71872.8,-9.71,-12.03,-11.93,0,*52
1512814003.41,10007,4.94,71874.0,-9.71,-12.03,-11.81,0,*50
1512814004.66,10008,4.94,71872.5,-9.71,-11.93,-11.81,0,*55
1512814005.94,10009,4.94,71876.0,-9.73,-12.07,-11.97,0,*5F
1512814007.22,10010,4.94,71878.5,-9.73,-12.07,-11.85,0,*54
1512814008.48,10011,4.94,71874.0,-9.71,-11.93,-11.81,0,*5D
1512814009.73,10012,4.94,71876.0,-9.71,-11.93,-11.77,0,*57
1512814011.01,10013,4.94,71876.3,-9.73,-12.07,-11.85,0,*57
1512814012.29,10014,4.94,71874.3,-9.73,-11.85,-11.73,0,*50
1512814013.57,10015,4.94,71874.3,-9.73,-11.85,-11.67,0,*54
1512814014.84,10016,4.94,71874.3,-9.73,-11.73,-11.59,0,*53
1512814016.12,10017,4.94,71874.3,-9.73,-11.97,-11.81,0,*5D
1512814017.4,10018,4.94,71872.8,-9.73,-11.93,-11.85,0,*52
1512814018.67,10019,4.94,71874.0,-9.73,-11.97,-11.81,0,*53
1512814019.96,10020,4.94,71874.5,-9.73,-11.93,-11.85,0,*59
1512814021.22,10021,4.94,71870.5,-9.73,-12.21,-12.07,0,*5B
1512814022.5,10022,4.94,71874.8,-9.73,-12.07,-11.93,0,*52
1512814023.78,10023,4.94,71874.0,-9.73,-12.07,-11.85,0,*54
1512814025.04,10024,4.94,71874.3,-9.75,-11.85,-11.73,0,*55
1512814026.29,10025,4.94,71874.8,-9.75,-11.81,-11.67,0,*55
1512814027.54,10026,4.94,71872.0,-9.75,-11.73,-11.55,0,*5A
1512814028.8,10027,4.94,71872.0,-9.75,-11.93,-11.81,0,*5C
1512814030.08,10028,4.94,71874.3,-9.73,-11.73,-11.67,0,*53
1512814031.36,10029,4.94,71874.0,-9.73,-11.93,-11.67,0,*5C
1512814032.64,10030,4.94,71876.8,-9.73,-11.73,-11.55,0,*5B
1512814033.92,10031,4.94,71872.8,-9.73,-11.93,-11.85,0,*59
1512814035.2,10032,4.94,71872.8,-9.73,-11.97,-11.81,0,*5A
1512814036.48,10033,4.94,71872.5,-9.73,-11.93,-11.85,0,*5B
1512814037.76,10034,4.94,71874.5,-9.73,-11.97,-11.85,0,*58
1512814039.04,10035,4.94,71876.3,-9.73,-11.93,-11.81,0,*59
1512814040.32,10036,4.94,71876.5,-9.73,-11.97,-11.81,0,*5E
1512814041.59,10037,4.94,71872.3,-9.73,-11.85,-11.73,0,*51
1512814042.88,10038,4.94,71874.0,-9.73,-11.93,-11.73,0,*59
1512814044.16,10039,4.94,71876.5,-9.73,-11.93,-11.81,0,*55
1512814045.44,10040,4.94,71872.3,-9.73,-11.93,-11.73,0,*56
1512814046.72,10041,4.94,71872.0,-9.73,-11.85,-11.67,0,*55
1512814048.0,10042,4.94,71870.3,-9.73,-11.81,-11.73,0,*57
1512814049.28,10043,4.94,71872.5,-9.73,-11.67,-11.55,0,*5A
1512814050.55,10044,4.94,71874.3,-9.73,-11.73,-11.55,0,*58
1512814051.8,10045,4.94,71872.8,-9.75,-11.81,-11.59,0,*5E
1512814053.09,10046,4.94,71870.8,-9.73,-11.93,-11.73,0,*50
1512814054.37,10047,4.94,71870.8,-9.73,-11.85,-11.73,0,*56
1512814055.64,10048,4.94,71874.5,-9.73,-11.97,-11.73,0,*5A
1512814056.92,10049,4.94,71874.3,-9.73,-11.93,-11.81,0,*52
1512814058.21,10050,4.94,71874.0,-9.73,-11.93,-11.67,0,*52
1512814059.49,10051,4.94,71872.0,-9.73,-11.85,-11.67,0,*54
1512814060.77,10052,4.94,71874.0,-9.73,-11.81,-11.67,0,*53
1512814062.02,10053,4.94,71872.8,-9.75,-11.81,-11.59,0,*59
1512814063.27,10054,4.94,71868.8,-9.75,-11.81,-11.67,0,*53
1512814064.53,10055,4.94,71874.0,-9.75,-11.67,-11.55,0,*5B
1512814065.81,10056,4.94,71872.8,-9.73,-11.59,-11.51,0,*57
1512814067.06,10057,4.94,71870.5,-9.73,-11.59,-11.41,0,*57
1512814068.32,10058,4.94,71874.3,-9.71,-11.55,-11.37,0,*57
1512814069.56,10059,4.94,71872.8,-9.71,-11.51,-11.37,0,*52
1512814070.79,10060,4.94,71868.3,-9.71,-11.55,-11.45,0,*59
1512814072.04,10061,4.94,71872.3,-9.71,-11.77,-11.55,0,*59
1512814073.29,10062,4.94,71874.8,-9.67,-11.67,-11.51,0,*58
1512814074.55,10063,4.94,71874.0,-9.67,-11.77,-11.67,0,*5D
1512814075.8,10064,4.94,71874.8,-9.71,-11.77,-11.51,0,*58
1512814077.05,10065,4.94,71874.5,-9.71,-11.67,-11.51,0,*58
1512814078.3,10066,4.94,71872.3,-9.71,-11.77,-11.55,0,*5E
1512814079.55,10067,4.94,71874.0,-9.71,-11.63,-11.37,0,*5E
1512814080.78,10068,4.94,71872.3,-9.67,-11.55,-11.45,0,*56
1512814082.01,10069,4.94,71870.0,-9.71,-11.67,-11.45,0,*51
1512814083.26,10070,4.94,71870.5,-9.71,-11.77,-11.55,0,*59
1512814084.51,10071,4.94,71870.5,-9.67,-11.77,-11.55,0,*5F
1512814085.76,10072,4.94,71868.5,-9.71,-11.81,-11.77,0,*52
1512814087.01,10073,4.94,71872.5,-9.71,-11.89,-11.77,0,*5B
1512814088.26,10074,4.94,71874.3,-9.71,-11.93,-11.77,0,*57
1512814089.52,10075,4.94,71870.5,-9.67,-11.93,-11.67,0,*50
1512814090.78,10076,4.94,71872.8,-9.71,-11.77,-11.55,0,*5F
1512814092.03,10077,4.94,71870.3,-9.71,-11.77,-11.55,0,*5E
1512814093.28,10078,4.94,71868.3,-9.67,-11.77,-11.55,0,*56
1512814094.54,10079,4.94,71874.3,-9.71,-11.89,-11.63,0,*54
1512814095.79,10080,4.94,71872.0,-9.71,-11.89,-11.81,0,*5E
1512814097.04,10081,4.94,71870.0,-9.71,-11.89,-11.63,0,*53
1512814098.3,10082,4.94,71872.5,-9.71,-11.67,-11.63,0,*50
1512814099.55,10083,4.94,71868.3,-9.71,-11.67,-11.51,0,*50
1512814100.8,10084,4.94,71870.5,-9.71,-11.81,-11.55,0,*5B
1512814102.05,10085,4.94,71870.0,-9.71,-11.81,-11.63,0,*5F
1512814103.31,10086,4.94,71874.5,-9.67,-11.77,-11.63,0,*52
1512814104.57,10087,4.94,71866.8,-9.67,-11.77,-11.63,0,*53
1512814105.82,10088,4.94,71868.5,-9.67,-11.77,-11.51,0,*5D
1512814107.07,10089,4.94,71870.0,-9.71,-11.89,-11.67,0,*5F
1512814108.29,10090,4.94,71874.0,-9.67,-12.03,-11.81,0,*59
1512814109.51,10091,4.94,71868.3,-9.67,-12.03,-11.81,0,*58
1512814110.77,10092,4.94,71870.3,-9.71,-11.89,-11.63,0,*51
1512814112.02,10093,4.94,71868.8,-9.71,-11.77,-11.63,0,*51
1512814113.28,10094,4.94,71868.8,-9.67,-11.77,-11.63,0,*51